Weather in Tura

Russia / Krasnoyarsk Krai     64°16′20″N   100°12′23″E
temp.,
°C
wind,
m/s
gust,
m/s
humid.,
%
clouds,
%
prec.,
mm/h
press.,
hPa
HPBL,
m
27 november, sat
sat2701:00−20sw2297100 0.1 101627
04:00−22sw2210054 0.0 101910
07:00−24ssw2210077 0.0 102116
10:00−20ssw3493100 0.0 102168
13:00−19ssw3491100 0.0 102393
16:00−21ssw3394100 0.0 102433
19:00−27ssw2210023 0.0 102612
22:00−29ssw2210047 0.0 102611
28 november, sun
sun2801:00−30ssw2210073 0.0 102711
04:00−31ssw2210086 0.0 102610
07:00−31ssw22100100 0.0 102510
10:00−31ssw11100100 0.0 10249
13:00−25ssw22100100 0.0 102254
16:00−25s11100100 0.0 102212
19:00−24s11100100 0.0 102119
22:00−22s1299100 0.1 102058
29 november, mon
mon2901:00−21sse1199100 0.2 101925
04:00−21sse11100100 0.1 101912
07:00−19ssw1198100 0.4 101855
10:00−19nw1199100 0.3 101819
13:00−19nnw119777 0.4 101955
16:00−23nw1110076 0.1 10219
19:00−27wnw1110087 0.1 10239
22:00−30w1110097 0.0 10249
30 november, tue
tue3001:00−32wsw0010097 0.1 10259
04:00−31ese11100100 0.0 10249
07:00−25se1199100 0.0 102051
10:00−22e1298100 0.2 101798
13:00−21e1298100 0.8 1013135
16:00−20ese1199100 0.6 101194
19:00−20ese119994 1.0 100958
22:00−20ese1199100 0.2 100730
1 december, wed
wed101:00−19e1198100 0.6 100673
04:00−19ne1198100 0.4 100554
07:00−20n2398100 0.6 100852
10:00−23nw2210076 0.1 101210
13:00−25nw1110054 0.1 10169
16:00−29w1110066 0.0 10209
19:00−32sw1110090 0.0 10229
22:00−30ssw21100100 0.0 102312